^^
Station Historical Data
Daily Summary for June 21, 2017 Units:  English    Metric   Both
« Previous Day
Next Day »
Daily Weekly Monthly Yearly Custom
  High: Low: Average:
Temperature: 82.3 °F 61.2 °F 70.6 °F
Dew Point: 64.6 °F 56.6 °F 60.2 °F
Humidity: 85 % 47 % 71 %
Wind Speed: 8.8 mph 0.0 mph 1 mph
Wind Gust: 23.0 mph - -
Wind:- - WSW
Pressure: 29.97 in 29.89 in -
Precipitation: 0.04 in    
Historical Graphs
 
 
Tabular Data for June 21, 2017
Time Temperature Dew Point Pressure Wind Wind Speed Wind Gust Humidity Rainfall Rate (Hourly) solar Conditions
00:03 67.2 °F 59.4 °F 29.96 in Calm     76 % 0.00 in 0.0 W/m2 CLR
00:08 67.0 °F 58.8 °F 29.96 in Calm     75 % 0.00 in 0.0 W/m2 CLR
00:13 67.6 °F 59.0 °F 29.95 in Calm     74 % 0.00 in 0.0 W/m2 CLR
00:18 67.5 °F 58.9 °F 29.95 in Calm     74 % 0.00 in 0.0 W/m2 CLR
00:23 67.2 °F 58.6 °F 29.95 in Calm     74 % 0.00 in 0.0 W/m2 CLR
00:28 67.3 °F 58.7 °F 29.95 in Calm     74 % 0.00 in 0.0 W/m2 CLR
00:33 67.4 °F 58.4 °F 29.95 in Calm     73 % 0.00 in 0.0 W/m2 CLR
00:38 67.2 °F 58.6 °F 29.95 in Calm     74 % 0.00 in 0.0 W/m2 CLR
00:43 66.9 °F 58.3 °F 29.95 in Calm     74 % 0.00 in 0.0 W/m2 CLR
00:48 67.1 °F 58.5 °F 29.95 in Calm     74 % 0.00 in 0.0 W/m2 CLR
00:53 67.1 °F 58.2 °F 29.95 in Calm     73 % 0.00 in 0.0 W/m2 CLR
00:58 66.9 °F 58.3 °F 29.95 in Calm     74 % 0.00 in 0.0 W/m2 CLR
01:03 66.9 °F 58.3 °F 29.95 in Calm     74 % 0.00 in 0.0 W/m2 SCT
01:08 66.8 °F 57.9 °F 29.95 in Calm     73 % 0.00 in 0.0 W/m2 SCT
01:13 66.8 °F 58.2 °F 29.95 in Calm     74 % 0.00 in 0.0 W/m2 SCT
01:18 66.6 °F 57.7 °F 29.95 in Calm     73 % 0.00 in 0.0 W/m2 SCT
01:23 66.3 °F 57.8 °F 29.95 in Calm     74 % 0.00 in 0.0 W/m2 SCT
01:28 66.2 °F 58.0 °F 29.95 in Calm     75 % 0.00 in 0.0 W/m2 SCT
01:34 66.1 °F 57.9 °F 29.94 in Calm     75 % 0.00 in 0.0 W/m2 SCT
01:39 65.9 °F 57.7 °F 29.94 in Calm     75 % 0.00 in 0.0 W/m2 SCT
01:44 66.0 °F 57.8 °F 29.94 in Calm     75 % 0.00 in 0.0 W/m2 SCT
01:49 65.6 °F 57.5 °F 29.94 in Calm     75 % 0.00 in 0.0 W/m2 SCT
01:54 65.5 °F 57.7 °F 29.94 in Calm     76 % 0.00 in 0.0 W/m2 SCT
01:59 65.4 °F 57.6 °F 29.93 in Calm     76 % 0.00 in 0.0 W/m2 SCT
02:04 65.4 °F 57.6 °F 29.93 in Calm     76 % 0.00 in 0.0 W/m2 CLR
02:09 65.4 °F 57.6 °F 29.93 in Calm     76 % 0.00 in 0.0 W/m2 CLR
02:14 65.1 °F 57.7 °F 29.93 in Calm     77 % 0.00 in 0.0 W/m2 CLR
02:19 64.8 °F 57.4 °F 29.93 in Calm     77 % 0.00 in 0.0 W/m2 CLR
02:24 64.8 °F 57.8 °F 29.93 in Calm     78 % 0.00 in 0.0 W/m2 CLR
02:29 64.6 °F 57.6 °F 29.93 in Calm     78 % 0.00 in 0.0 W/m2 CLR
02:34 64.6 °F 57.6 °F 29.93 in Calm     78 % 0.00 in 0.0 W/m2 CLR
02:39 64.4 °F 57.7 °F 29.93 in Calm     79 % 0.00 in 0.0 W/m2 CLR
02:44 64.2 °F 57.5 °F 29.93 in Calm     79 % 0.00 in 0.0 W/m2 CLR
02:49 63.9 °F 57.6 °F 29.93 in Calm     80 % 0.00 in 0.0 W/m2 CLR
02:54 63.7 °F 57.4 °F 29.93 in Calm     80 % 0.00 in 0.0 W/m2 CLR
02:59 63.5 °F 57.6 °F 29.93 in Calm     81 % 0.00 in 0.0 W/m2 CLR
03:04 63.0 °F 57.1 °F 29.93 in Calm     81 % 0.00 in 0.0 W/m2 CLR
03:09 62.9 °F 57.3 °F 29.93 in Calm     82 % 0.00 in 0.0 W/m2 CLR
03:14 62.8 °F 57.2 °F 29.93 in Calm     82 % 0.00 in 0.0 W/m2 CLR
03:19 62.7 °F 57.5 °F 29.93 in Calm     83 % 0.00 in 0.0 W/m2 CLR
03:24 62.6 °F 57.4 °F 29.93 in Calm     83 % 0.00 in 0.0 W/m2 CLR
03:29 62.5 °F 57.3 °F 29.93 in Calm     83 % 0.00 in 0.0 W/m2 CLR
03:34 62.5 °F 57.3 °F 29.93 in Calm     83 % 0.00 in 0.0 W/m2 CLR
03:39 62.5 °F 57.3 °F 29.93 in Calm     83 % 0.00 in 0.0 W/m2 CLR
03:44 62.5 °F 57.3 °F 29.93 in Calm     83 % 0.00 in 0.0 W/m2 CLR
03:49 62.4 °F 57.2 °F 29.93 in Calm     83 % 0.00 in 0.0 W/m2 CLR
03:54 62.5 °F 57.3 °F 29.93 in Calm     83 % 0.00 in 0.0 W/m2 CLR
03:59 62.7 °F 57.5 °F 29.93 in Calm     83 % 0.00 in 0.0 W/m2 CLR
04:04 62.6 °F 57.0 °F 29.93 in Calm     82 % 0.00 in 0.0 W/m2 CLR
04:09 62.6 °F 57.0 °F 29.93 in Calm     82 % 0.00 in 0.0 W/m2 CLR
04:14 62.5 °F 57.3 °F 29.93 in Calm     83 % 0.00 in 0.0 W/m2 CLR
04:19 62.5 °F 57.3 °F 29.93 in Calm     83 % 0.00 in 0.0 W/m2 CLR
04:24 62.3 °F 57.1 °F 29.93 in Calm     83 % 0.00 in 0.0 W/m2 CLR
04:29 62.2 °F 57.0 °F 29.93 in Calm     83 % 0.00 in 0.0 W/m2 CLR
04:34 62.0 °F 56.8 °F 29.93 in Calm     83 % 0.00 in 0.0 W/m2 CLR
04:39 61.7 °F 56.8 °F 29.93 in Calm     84 % 0.00 in 0.0 W/m2 CLR
04:44 61.6 °F 56.7 °F 29.93 in Calm     84 % 0.00 in 0.0 W/m2 CLR
04:49 61.7 °F 57.1 °F 29.93 in Calm     85 % 0.00 in 0.0 W/m2 CLR
04:54 61.8 °F 56.9 °F 29.93 in Calm     84 % 0.00 in 0.0 W/m2 CLR
04:59 61.7 °F 56.8 °F 29.93 in Calm     84 % 0.00 in 0.0 W/m2 CLR
05:04 61.5 °F 56.6 °F 29.93 in Calm     84 % 0.00 in 0.0 W/m2 CLR
05:10 61.5 °F 56.9 °F 29.93 in Calm     85 % 0.00 in 0.0 W/m2 CLR
05:15 61.5 °F 56.9 °F 29.93 in Calm     85 % 0.00 in 0.0 W/m2 CLR
05:20 61.6 °F 57.0 °F 29.94 in Calm     85 % 0.00 in 0.0 W/m2 CLR
05:25 61.5 °F 56.9 °F 29.94 in Calm     85 % 0.00 in 0.0 W/m2 CLR
05:30 61.5 °F 56.9 °F 29.94 in Calm     85 % 0.00 in 0.0 W/m2 CLR
05:35 61.4 °F 56.8 °F 29.94 in Calm     85 % 0.00 in 0.0 W/m2 CLR
05:40 61.3 °F 56.8 °F 29.94 in Calm     85 % 0.00 in 0.0 W/m2 CLR
05:45 61.2 °F 56.7 °F 29.94 in Calm     85 % 0.00 in 5.0 W/m2 CLR
05:50 61.3 °F 56.8 °F 29.94 in Calm     85 % 0.00 in 7.0 W/m2 CLR
05:55 61.5 °F 56.9 °F 29.94 in Calm     85 % 0.00 in 9.0 W/m2 CLR
06:00 61.6 °F 56.7 °F 29.94 in Calm     84 % 0.00 in 11.0 W/m2 CLR
06:05 61.8 °F 56.9 °F 29.95 in Calm     84 % 0.00 in 14.0 W/m2 CLR
06:10 62.0 °F 56.8 °F 29.95 in Calm     83 % 0.00 in 16.0 W/m2 CLR
06:15 62.5 °F 56.9 °F 29.95 in Calm     82 % 0.00 in 16.0 W/m2 CLR
06:20 63.0 °F 57.1 °F 29.95 in Calm     81 % 0.00 in 21.0 W/m2 CLR
06:25 63.5 °F 57.2 °F 29.95 in Calm     80 % 0.00 in 28.0 W/m2 CLR
06:30 63.7 °F 57.1 °F 29.95 in Calm     79 % 0.00 in 42.0 W/m2 CLR
06:35 64.1 °F 57.5 °F 29.95 in Calm     79 % 0.00 in 40.0 W/m2 CLR
06:40 64.2 °F 57.5 °F 29.96 in Calm     79 % 0.00 in 53.0 W/m2 CLR
06:45 64.2 °F 57.5 °F 29.96 in Calm     79 % 0.00 in 53.0 W/m2 CLR
06:50 64.4 °F 57.7 °F 29.96 in Calm     79 % 0.00 in 46.0 W/m2 CLR
06:55 64.8 °F 57.8 °F 29.96 in Calm     78 % 0.00 in 33.0 W/m2 CLR
07:00 65.2 °F 57.8 °F 29.96 in Calm     77 % 0.00 in 30.0 W/m2 CLR
07:05 65.5 °F 58.1 °F 29.96 in Calm     77 % 0.00 in 32.0 W/m2 SCT
07:10 66.1 °F 57.9 °F 29.96 in Calm     75 % 0.00 in 35.0 W/m2 SCT
07:15 66.3 °F 58.1 °F 29.96 in Calm     75 % 0.00 in 40.0 W/m2 SCT
07:20 66.1 °F 58.3 °F 29.96 in Calm     76 % 0.00 in 37.0 W/m2 SCT
07:25 65.7 °F 58.3 °F 29.96 in Calm     77 % 0.00 in 53.0 W/m2 SCT
07:30 65.7 °F 58.7 °F 29.96 in Calm     78 % 0.00 in 107.0 W/m2 SCT
07:35 66.2 °F 58.8 °F 29.96 in Calm     77 % 0.00 in 151.0 W/m2 SCT
07:40 66.6 °F 59.2 °F 29.96 in Calm     77 % 0.00 in 160.0 W/m2 SCT
07:45 67.2 °F 59.7 °F 29.96 in Calm     77 % 0.00 in 134.0 W/m2 SCT
07:51 67.5 °F 59.3 °F 29.96 in Calm     75 % 0.00 in 134.0 W/m2 SCT
07:56 68.2 °F 59.2 °F 29.96 in Calm     73 % 0.00 in 137.0 W/m2 SCT
08:01 68.4 °F 59.0 °F 29.96 in WSW 0.6 mph 3.5 mph 72 % 0.00 in 178.0 W/m2 SCT
08:04 68.5 °F 59.1 °F 29.96 in WSW 1.2 mph 3.5 mph 72 % 0.00 in 197.0 W/m2 CLR
08:09 68.6 °F 59.2 °F 29.96 in Calm   3.5 mph 72 % 0.00 in 204.0 W/m2 CLR
08:14 68.8 °F 59.0 °F 29.96 in SW 0.5 mph 3.5 mph 71 % 0.00 in 197.0 W/m2 CLR
08:19 69.0 °F 58.8 °F 29.96 in SW 1.0 mph 3.5 mph 70 % 0.00 in 207.0 W/m2 CLR
08:24 69.0 °F 58.8 °F 29.96 in SW 2.0 mph 3.5 mph 70 % 0.00 in 197.0 W/m2 CLR
08:29 68.9 °F 58.3 °F 29.96 in SSW 0.3 mph 3.5 mph 69 % 0.00 in 176.0 W/m2 CLR
08:35 69.0 °F 58.8 °F 29.96 in SSW 1.0 mph 3.0 mph 70 % 0.00 in 141.0 W/m2 CLR
08:40 69.1 °F 58.9 °F 29.96 in Calm   3.5 mph 70 % 0.00 in 192.0 W/m2 CLR
08:45 69.2 °F 59.0 °F 29.96 in Calm   3.5 mph 70 % 0.00 in 239.0 W/m2 CLR
08:50 69.5 °F 58.9 °F 29.96 in SW 2.0 mph 4.0 mph 69 % 0.00 in 255.0 W/m2 CLR
08:55 69.8 °F 58.8 °F 29.96 in Calm   4.0 mph 68 % 0.00 in 172.0 W/m2 CLR
09:00 70.1 °F 58.6 °F 29.96 in SSW 2.8 mph 4.6 mph 67 % 0.00 in 141.0 W/m2 CLR
09:05 70.2 °F 58.7 °F 29.96 in SW 2.0 mph 5.0 mph 67 % 0.00 in 258.0 W/m2 CLR
09:10 71.0 °F 59.5 °F 29.96 in Calm   6.0 mph 67 % 0.00 in 315.0 W/m2 CLR
09:15 71.1 °F 58.3 °F 29.95 in SW 1.4 mph 8.1 mph 64 % 0.00 in 322.0 W/m2 CLR
09:20 71.2 °F 58.4 °F 29.95 in SW 3.0 mph 6.0 mph 64 % 0.00 in 327.0 W/m2 CLR
09:25 71.4 °F 59.0 °F 29.95 in Calm   3.0 mph 65 % 0.00 in 329.0 W/m2 CLR
09:30 71.9 °F 58.6 °F 29.95 in SW 3.2 mph 5.8 mph 63 % 0.00 in 309.0 W/m2 CLR
09:35 72.2 °F 58.9 °F 29.95 in SW 1.6 mph 4.6 mph 63 % 0.00 in 422.0 W/m2 CLR
09:40 72.2 °F 58.5 °F 29.96 in SW 1.0 mph 6.0 mph 62 % 0.00 in 295.0 W/m2 CLR
09:45 72.4 °F 59.1 °F 29.96 in WSW 2.1 mph 5.8 mph 63 % 0.00 in 251.0 W/m2 CLR
09:50 72.2 °F 58.9 °F 29.96 in SW 2.0 mph 6.0 mph 63 % 0.00 in 258.0 W/m2 CLR
09:55 72.1 °F 59.2 °F 29.96 in WSW 2.0 mph 8.0 mph 64 % 0.00 in 255.0 W/m2 CLR
10:00 71.9 °F 58.2 °F 29.96 in West 3.4 mph 8.1 mph 62 % 0.00 in 287.0 W/m2 CLR
10:05 72.0 °F 58.3 °F 29.96 in WSW 3.0 mph 7.0 mph 62 % 0.00 in 322.0 W/m2 CLR
10:10 72.5 °F 58.7 °F 29.96 in West 5.0 mph 8.0 mph 62 % 0.00 in 374.0 W/m2 CLR
10:15 73.0 °F 58.8 °F 29.96 in WSW 2.8 mph 8.1 mph 61 % 0.00 in 359.0 W/m2 CLR
10:20 72.7 °F 58.9 °F 29.97 in WSW 0.8 mph 8.1 mph 62 % 0.00 in 438.0 W/m2 CLR
10:25 73.2 °F 59.4 °F 29.96 in WSW 0.6 mph 6.9 mph 62 % 0.00 in 352.0 W/m2 CLR
10:30 73.7 °F 59.9 °F 29.97 in West 0.7 mph 6.9 mph 62 % 0.00 in 330.0 W/m2 CLR
10:31 73.7 °F 59.9 °F 29.97 in West 3.3 mph 6.9 mph 62 % 0.00 in 367.0 W/m2 CLR
10:36 73.5 °F 59.7 °F 29.97 in NW 1.4 mph 6.9 mph 62 % 0.00 in 457.0 W/m2 CLR
10:41 74.1 °F 59.3 °F 29.97 in WNW 1.6 mph 8.1 mph 60 % 0.00 in 434.0 W/m2 CLR
10:46 74.2 °F 59.4 °F 29.96 in West 2.7 mph 10.4 mph 60 % 0.00 in 309.0 W/m2 CLR
10:51 74.3 °F 59.5 °F 29.96 in West 2.3 mph 10.4 mph 60 % 0.00 in 548.0 W/m2 CLR
10:55 74.7 °F 59.4 °F 29.97 in SW 4.6 mph 5.8 mph 59 % 0.00 in 378.0 W/m2 CLR
10:57 74.5 °F 58.8 °F 29.96 in WSW 4.5 mph 10.4 mph 58 % 0.00 in 585.0 W/m2 CLR
11:02 74.2 °F 58.9 °F 29.96 in WSW 3.0 mph 10.4 mph 59 % 0.00 in 417.0 W/m2 CLR
11:07 74.4 °F 58.7 °F 29.96 in WSW 3.3 mph 10.4 mph 58 % 0.00 in 253.0 W/m2 CLR
11:12 74.5 °F 59.2 °F 29.96 in West 1.9 mph 6.9 mph 59 % 0.00 in 294.0 W/m2 CLR
11:17 74.5 °F 59.2 °F 29.96 in WNW 2.5 mph 6.9 mph 59 % 0.00 in 320.0 W/m2 CLR
11:22 74.2 °F 58.9 °F 29.96 in West 2.7 mph 8.1 mph 59 % 0.00 in 218.0 W/m2 CLR
11:27 74.3 °F 59.5 °F 29.96 in Calm   8.1 mph 60 % 0.00 in 151.0 W/m2 CLR
11:32 74.2 °F 59.4 °F 29.96 in SW 1.8 mph 4.6 mph 60 % 0.00 in 156.0 W/m2 CLR
11:37 73.8 °F 59.5 °F 29.96 in Calm   4.6 mph 61 % 0.00 in 128.0 W/m2 CLR
11:42 73.6 °F 59.3 °F 29.96 in SW 1.2 mph 4.6 mph 61 % 0.00 in 141.0 W/m2 CLR
11:47 73.4 °F 59.6 °F 29.96 in WSW 1.0 mph 4.6 mph 62 % 0.00 in 200.0 W/m2 CLR
11:53 73.5 °F 59.7 °F 29.96 in WSW 1.5 mph 4.6 mph 62 % 0.00 in 301.0 W/m2 CLR
11:58 73.8 °F 60.0 °F 29.96 in SW 0.1 mph 5.8 mph 62 % 0.00 in 552.0 W/m2 CLR
12:02 74.1 °F 59.3 °F 29.96 in WNW 3.2 mph 6.9 mph 60 % 0.00 in 431.0 W/m2 OVC
12:08 74.3 °F 58.6 °F 29.96 in WSW 2.0 mph 8.1 mph 58 % 0.00 in 432.0 W/m2 OVC
12:13 74.4 °F 58.2 °F 29.95 in WSW 1.4 mph 9.2 mph 57 % 0.00 in 309.0 W/m2 OVC
12:18 75.0 °F 59.2 °F 29.96 in West 3.4 mph 9.2 mph 58 % 0.00 in 962.0 W/m2 OVC
12:23 76.1 °F 58.8 °F 29.95 in SW 5.4 mph 8.1 mph 55 % 0.00 in 962.0 W/m2 OVC
12:28 76.0 °F 59.2 °F 29.95 in SSW 2.3 mph 9.2 mph 56 % 0.00 in 963.0 W/m2 OVC
12:33 76.2 °F 57.8 °F 29.95 in West 4.4 mph 9.2 mph 53 % 0.00 in 965.0 W/m2 OVC
12:38 76.6 °F 58.7 °F 29.95 in Calm   8.1 mph 54 % 0.00 in 965.0 W/m2 OVC
12:43 76.9 °F 59.5 °F 29.95 in West 5.6 mph 8.1 mph 55 % 0.00 in 972.0 W/m2 OVC
12:48 77.0 °F 59.6 °F 29.95 in WNW 6.2 mph 11.5 mph 55 % 0.00 in 965.0 W/m2 OVC
12:53 77.9 °F 59.4 °F 29.94 in WSW 2.7 mph 11.5 mph 53 % 0.00 in 974.0 W/m2 OVC
12:58 78.9 °F 59.8 °F 29.94 in NW 5.9 mph 11.5 mph 52 % 0.00 in 970.0 W/m2 OVC
13:03 79.7 °F 60.0 °F 29.94 in NW 4.0 mph 12.7 mph 51 % 0.00 in 969.0 W/m2 CLR
13:08 79.5 °F 60.3 °F 29.94 in WSW 2.7 mph 12.7 mph 52 % 0.00 in 965.0 W/m2 CLR
13:13 78.5 °F 59.9 °F 29.93 in WNW 3.8 mph 9.2 mph 53 % 0.00 in 965.0 W/m2 CLR
13:18 78.8 °F 60.2 °F 29.93 in SSW 5.1 mph 10.4 mph 53 % 0.00 in 965.0 W/m2 CLR
13:23 79.0 °F 60.4 °F 29.93 in WSW 2.6 mph 10.4 mph 53 % 0.00 in 965.0 W/m2 CLR
13:28 79.6 °F 61.0 °F 29.93 in West 2.0 mph 11.5 mph 53 % 0.00 in 963.0 W/m2 CLR
13:33 79.6 °F 59.9 °F 29.93 in West 4.8 mph 11.5 mph 51 % 0.00 in 974.0 W/m2 CLR
13:38 79.3 °F 60.1 °F 29.92 in SSW 2.6 mph 11.5 mph 52 % 0.00 in 954.0 W/m2 CLR
13:43 79.8 °F 61.1 °F 29.92 in SW 4.4 mph 11.5 mph 53 % 0.00 in 956.0 W/m2 CLR
13:48 79.8 °F 60.6 °F 29.92 in SSW 4.7 mph 11.5 mph 52 % 0.00 in 949.0 W/m2 CLR
13:54 79.8 °F 60.6 °F 29.92 in South 0.8 mph 11.5 mph 52 % 0.00 in 946.0 W/m2 CLR
13:59 80.3 °F 61.6 °F 29.92 in SSW 4.9 mph 9.2 mph 53 % 0.00 in 947.0 W/m2 CLR
14:00 80.8 °F 61.5 °F 29.92 in WSW 4.8 mph 9.2 mph 52 % 0.00 in 963.0 W/m2 CLR
14:05 80.7 °F 61.4 °F 29.91 in SSW 1.8 mph 9.2 mph 52 % 0.00 in 907.0 W/m2 CLR
14:10 80.7 °F 61.4 °F 29.91 in SW 1.9 mph 11.5 mph 52 % 0.00 in 933.0 W/m2 CLR
14:15 80.7 °F 60.9 °F 29.91 in SW 5.9 mph 11.5 mph 51 % 0.00 in 939.0 W/m2 CLR
14:20 80.3 °F 61.1 °F 29.91 in SW 1.5 mph 11.5 mph 52 % 0.00 in 1007.0 W/m2 CLR
14:25 80.4 °F 60.6 °F 29.91 in SW 3.6 mph 11.5 mph 51 % 0.00 in 983.0 W/m2 CLR
14:30 80.8 °F 60.4 °F 29.91 in SSW 2.0 mph 13.8 mph 50 % 0.00 in 979.0 W/m2 CLR
14:35 81.2 °F 61.4 °F 29.90 in SSW 3.2 mph 13.8 mph 51 % 0.00 in 264.0 W/m2 CLR
14:40 81.4 °F 60.4 °F 29.90 in SSW 4.8 mph 10.4 mph 49 % 0.00 in 937.0 W/m2 CLR
14:45 81.5 °F 59.3 °F 29.90 in SW 5.0 mph 11.5 mph 47 % 0.00 in 951.0 W/m2 CLR
14:48 82.1 °F 61.0 °F 29.90 in WSW 0.7 mph 11.5 mph 49 % 0.00 in 993.0 W/m2 CLR
14:53 82.1 °F 59.9 °F 29.89 in West 3.2 mph 11.5 mph 47 % 0.00 in 951.0 W/m2 CLR
14:58 81.7 °F 60.7 °F 29.89 in SW 4.5 mph 11.5 mph 49 % 0.00 in 962.0 W/m2 CLR
15:03 82.0 °F 60.4 °F 29.89 in WSW 1.6 mph 11.5 mph 48 % 0.00 in 954.0 W/m2 FEW
15:08 82.3 °F 60.6 °F 29.89 in SW 2.4 mph 9.2 mph 48 % 0.00 in 976.0 W/m2 FEW
15:13 81.6 °F 59.4 °F 29.89 in Calm   6.9 mph 47 % 0.00 in 279.0 W/m2 FEW
15:18 81.1 °F 59.6 °F 29.89 in SW 0.8 mph 8.1 mph 48 % 0.00 in 186.0 W/m2 FEW
15:23 80.6 °F 59.7 °F 29.89 in SW 0.1 mph 8.1 mph 49 % 0.00 in 90.0 W/m2 FEW
15:28 80.4 °F 59.5 °F 29.89 in Calm   8.1 mph 49 % 0.00 in 54.0 W/m2 FEW
15:33 80.0 °F 60.8 °F 29.89 in WNW 0.1 mph 5.8 mph 52 % 0.00 in 67.0 W/m2 FEW
15:39 79.4 °F 62.3 °F 29.90 in West 4.0 mph 10.4 mph 56 % 0.00 in 56.0 W/m2 FEW
15:44 77.4 °F 61.9 °F 29.90 in SW 5.0 mph 12.7 mph 59 % 0.01 in 30.0 W/m2 RA
15:49 74.5 °F 61.1 °F 29.91 in West 0.7 mph 12.7 mph 63 % 0.01 in 21.0 W/m2 RA
15:54 73.2 °F 62.4 °F 29.92 in SW 0.9 mph 11.5 mph 69 % 0.03 in 54.0 W/m2 RA
15:55 73.0 °F 62.6 °F 29.92 in SW 5.3 mph 11.5 mph 70 % 0.03 in 63.0 W/m2 RA
16:00 71.8 °F 62.3 °F 29.93 in SSW 8.8 mph 23.0 mph 72 % 0.04 in 86.0 W/m2 RA
16:05 70.6 °F 62.3 °F 29.92 in SSW 4.0 mph 23.0 mph 75 % 0.04 in 167.0 W/m2 RA
16:10 69.3 °F 62.5 °F 29.92 in SSW 3.3 mph 21.9 mph 79 % 0.04 in 236.0 W/m2 SCT
16:15 69.0 °F 62.9 °F 29.92 in SW 1.1 mph 11.5 mph 81 % 0.04 in 311.0 W/m2 SCT
16:20 68.6 °F 62.5 °F 29.92 in WSW 0.7 mph 6.9 mph 81 % 0.04 in 285.0 W/m2 -RA
16:25 68.5 °F 62.4 °F 29.91 in SSW 1.5 mph 4.6 mph 81 % 0.04 in 316.0 W/m2 -RA
16:30 68.8 °F 62.7 °F 29.91 in SW 1.8 mph 4.6 mph 81 % 0.04 in 357.0 W/m2 -RA
16:35 69.0 °F 62.6 °F 29.90 in Calm   8.1 mph 80 % 0.04 in 517.0 W/m2 SCT
16:40 69.7 °F 63.3 °F 29.91 in Calm   8.1 mph 80 % 0.04 in 684.0 W/m2 SCT
16:45 70.9 °F 63.7 °F 29.90 in Calm   3.5 mph 78 % 0.03 in 656.0 W/m2 SCT
16:50 71.7 °F 63.4 °F 29.91 in WSW 2.4 mph 5.8 mph 75 % 0.02 in 236.0 W/m2 SCT
16:55 72.6 °F 63.8 °F 29.90 in Calm   5.8 mph 74 % 0.01 in 316.0 W/m2 SCT
17:00 72.8 °F 62.8 °F 29.91 in Calm   4.6 mph 71 % 0.00 in 364.0 W/m2 SCT
17:05 74.0 °F 63.2 °F 29.90 in Calm   1.2 mph 69 % 0.00 in 782.0 W/m2 CLR
17:10 74.9 °F 62.3 °F 29.90 in WSW 0.7 mph 3.5 mph 65 % 0.00 in 570.0 W/m2 CLR
17:15 75.0 °F 61.5 °F 29.90 in SW 2.9 mph 5.8 mph 63 % 0.00 in 381.0 W/m2 CLR
17:20 74.9 °F 61.5 °F 29.90 in South 0.5 mph 5.8 mph 63 % 0.00 in 640.0 W/m2 CLR
17:25 74.9 °F 61.0 °F 29.90 in SSW 4.4 mph 5.8 mph 62 % 0.00 in 666.0 W/m2 CLR
17:30 75.0 °F 61.1 °F 29.90 in SW 0.1 mph 5.8 mph 62 % 0.00 in 251.0 W/m2 CLR
17:35 75.3 °F 61.4 °F 29.90 in Calm   4.6 mph 62 % 0.00 in 211.0 W/m2 CLR
17:40 75.0 °F 60.6 °F 29.90 in WSW 1.3 mph 3.5 mph 61 % 0.00 in 229.0 W/m2 CLR
17:45 75.0 °F 60.6 °F 29.90 in SW 1.7 mph 3.5 mph 61 % 0.00 in 234.0 W/m2 CLR
17:50 75.8 °F 61.8 °F 29.90 in SSW 0.1 mph 3.5 mph 62 % 0.00 in 540.0 W/m2 CLR
17:55 76.2 °F 61.8 °F 29.90 in WSW 2.5 mph 4.6 mph 61 % 0.00 in 445.0 W/m2 CLR
18:00 76.3 °F 61.9 °F 29.90 in SSW 1.7 mph 5.8 mph 61 % 0.00 in 425.0 W/m2 CLR
18:05 76.4 °F 62.4 °F 29.90 in SW 1.0 mph 6.9 mph 62 % 0.00 in 427.0 W/m2 CLR
18:10 76.2 °F 62.7 °F 29.91 in WSW 1.5 mph 6.9 mph 63 % 0.00 in 165.0 W/m2 CLR
18:15 75.8 °F 62.3 °F 29.91 in SW 4.2 mph 6.9 mph 63 % 0.00 in 142.0 W/m2 CLR
18:20 75.3 °F 62.3 °F 29.91 in SW 2.5 mph 8.1 mph 64 % 0.00 in 403.0 W/m2 CLR
18:25 75.6 °F 62.6 °F 29.91 in SW 0.1 mph 8.1 mph 64 % 0.00 in 243.0 W/m2 CLR
18:30 75.7 °F 63.1 °F 29.91 in West 1.0 mph 5.8 mph 65 % 0.00 in 308.0 W/m2 CLR
18:35 75.7 °F 63.1 °F 29.92 in SSW 0.8 mph 5.8 mph 65 % 0.00 in 279.0 W/m2 CLR
18:40 75.9 °F 63.7 °F 29.91 in West 2.9 mph 5.8 mph 66 % 0.00 in 258.0 W/m2 CLR
18:45 75.9 °F 63.7 °F 29.91 in South 3.8 mph 8.1 mph 66 % 0.00 in 239.0 W/m2 CLR
18:50 75.7 °F 64.0 °F 29.91 in South 3.8 mph 8.1 mph 67 % 0.00 in 218.0 W/m2 CLR
18:55 75.5 °F 64.2 °F 29.91 in SSW 0.5 mph 8.1 mph 68 % 0.00 in 200.0 W/m2 CLR
19:01 75.3 °F 64.4 °F 29.91 in West 1.2 mph 6.9 mph 69 % 0.00 in 148.0 W/m2 CLR
19:06 75.2 °F 64.3 °F 29.91 in SW 0.4 mph 6.9 mph 69 % 0.00 in 167.0 W/m2 CLR
19:11 75.1 °F 64.2 °F 29.91 in SW 0.8 mph 8.1 mph 69 % 0.00 in 146.0 W/m2 CLR
19:16 75.0 °F 64.1 °F 29.91 in WSW 0.8 mph 8.1 mph 69 % 0.00 in 128.0 W/m2 CLR
19:21 74.9 °F 64.5 °F 29.91 in WSW 1.7 mph 6.9 mph 70 % 0.00 in 111.0 W/m2 CLR
19:26 74.8 °F 64.4 °F 29.91 in Calm   5.8 mph 70 % 0.00 in 25.0 W/m2 CLR
19:31 74.6 °F 64.2 °F 29.92 in Calm   3.5 mph 70 % 0.00 in 21.0 W/m2 CLR
19:36 74.4 °F 64.4 °F 29.92 in Calm   5.8 mph 71 % 0.00 in 32.0 W/m2 CLR
19:41 74.3 °F 64.3 °F 29.91 in Calm   5.8 mph 71 % 0.00 in 35.0 W/m2 CLR
19:46 74.2 °F 64.6 °F 29.92 in Calm   3.5 mph 72 % 0.00 in 28.0 W/m2 CLR
19:51 74.1 °F 64.5 °F 29.92 in Calm   3.5 mph 72 % 0.00 in 32.0 W/m2 CLR
19:56 74.0 °F 64.4 °F 29.92 in Calm   1.2 mph 72 % 0.00 in 21.0 W/m2 CLR
20:01 73.9 °F 64.3 °F 29.92 in Calm   8.1 mph 72 % 0.00 in 18.0 W/m2 CLR
20:06 73.8 °F 64.2 °F 29.92 in Calm   8.1 mph 72 % 0.00 in 16.0 W/m2 CLR
20:11 73.7 °F 64.1 °F 29.92 in Calm     72 % 0.00 in 12.0 W/m2 CLR
20:16 73.7 °F 64.1 °F 29.92 in Calm     72 % 0.00 in 11.0 W/m2 CLR
20:21 73.5 °F 64.3 °F 29.92 in Calm     73 % 0.00 in 11.0 W/m2 CLR
20:26 73.3 °F 64.1 °F 29.92 in Calm     73 % 0.00 in 9.0 W/m2 CLR
20:31 73.1 °F 64.3 °F 29.92 in Calm     74 % 0.00 in 5.0 W/m2 CLR
20:36 73.0 °F 64.6 °F 29.92 in Calm     75 % 0.00 in 0.0 W/m2 CLR
20:41 72.7 °F 64.3 °F 29.92 in Calm     75 % 0.00 in 0.0 W/m2 CLR
20:46 72.4 °F 64.4 °F 29.92 in Calm     76 % 0.00 in 0.0 W/m2 CLR
20:51 72.1 °F 64.1 °F 29.92 in Calm     76 % 0.00 in 0.0 W/m2 CLR
20:56 71.9 °F 64.3 °F 29.92 in Calm     77 % 0.00 in 0.0 W/m2 CLR
21:01 71.7 °F 64.1 °F 29.93 in Calm     77 % 0.00 in 0.0 W/m2 CLR
21:06 71.5 °F 63.9 °F 29.93 in Calm     77 % 0.00 in 0.0 W/m2 CLR
21:11 71.3 °F 64.1 °F 29.93 in Calm     78 % 0.00 in 0.0 W/m2 CLR
21:16 71.0 °F 63.8 °F 29.93 in Calm     78 % 0.00 in 0.0 W/m2 CLR
21:21 70.7 °F 63.9 °F 29.93 in Calm     79 % 0.00 in 0.0 W/m2 CLR
21:26 70.6 °F 64.1 °F 29.94 in Calm     80 % 0.00 in 0.0 W/m2 CLR
21:31 70.6 °F 64.1 °F 29.94 in Calm     80 % 0.00 in 0.0 W/m2 CLR
21:36 70.4 °F 63.9 °F 29.94 in Calm     80 % 0.00 in 0.0 W/m2 CLR
21:41 70.2 °F 64.1 °F 29.94 in Calm     81 % 0.00 in 0.0 W/m2 CLR
21:46 70.1 °F 64.0 °F 29.94 in Calm     81 % 0.00 in 0.0 W/m2 CLR
21:47 70.1 °F 64.0 °F 29.94 in Calm     81 % 0.00 in 0.0 W/m2 CLR
21:52 70.0 °F 63.9 °F 29.94 in Calm     81 % 0.00 in 0.0 W/m2 CLR
21:57 69.9 °F 63.8 °F 29.94 in Calm     81 % 0.00 in 0.0 W/m2 CLR
22:02 69.7 °F 64.0 °F 29.95 in Calm     82 % 0.00 in 0.0 W/m2 CLR
22:07 69.6 °F 63.9 °F 29.95 in Calm     82 % 0.00 in 0.0 W/m2 CLR
22:12 69.5 °F 63.8 °F 29.95 in Calm     82 % 0.00 in 0.0 W/m2 CLR
22:17 69.5 °F 63.4 °F 29.95 in Calm     81 % 0.00 in 0.0 W/m2 CLR
22:22 69.5 °F 63.4 °F 29.96 in Calm     81 % 0.00 in 0.0 W/m2 CLR
22:27 69.5 °F 63.4 °F 29.96 in Calm     81 % 0.00 in 0.0 W/m2 CLR
22:32 69.3 °F 63.2 °F 29.96 in Calm     81 % 0.00 in 0.0 W/m2 CLR
22:37 69.3 °F 63.2 °F 29.96 in Calm     81 % 0.00 in 0.0 W/m2 CLR
22:42 69.2 °F 63.1 °F 29.96 in Calm     81 % 0.00 in 0.0 W/m2 CLR
22:46 69.1 °F 63.0 °F 29.96 in Calm     81 % 0.00 in 0.0 W/m2 CLR
22:51 69.3 °F 63.2 °F 29.96 in Calm     81 % 0.00 in 0.0 W/m2 CLR
22:56 69.3 °F 62.9 °F 29.96 in Calm     80 % 0.00 in 0.0 W/m2 CLR
23:01 69.0 °F 62.9 °F 29.96 in Calm     81 % 0.00 in 0.0 W/m2 CLR
23:06 68.5 °F 62.8 °F 29.96 in Calm     82 % 0.00 in 0.0 W/m2 CLR
23:11 68.0 °F 62.3 °F 29.96 in Calm     82 % 0.00 in 0.0 W/m2 CLR
23:16 67.7 °F 62.3 °F 29.96 in Calm     83 % 0.00 in 0.0 W/m2 CLR
23:21 67.5 °F 62.2 °F 29.97 in Calm     83 % 0.00 in 0.0 W/m2 CLR
23:26 67.5 °F 62.5 °F 29.97 in Calm     84 % 0.00 in 0.0 W/m2 CLR
23:31 67.4 °F 62.4 °F 29.97 in Calm     84 % 0.00 in 0.0 W/m2 CLR
23:36 67.2 °F 62.2 °F 29.97 in Calm     84 % 0.00 in 0.0 W/m2 CLR
23:41 67.1 °F 62.1 °F 29.97 in Calm     84 % 0.00 in 0.0 W/m2 CLR
23:46 66.9 °F 61.9 °F 29.97 in Calm     84 % 0.00 in 0.0 W/m2 CLR
23:51 66.9 °F 61.9 °F 29.97 in Calm     84 % 0.00 in 0.0 W/m2 CLR
23:56 66.8 °F 62.1 °F 29.97 in Calm     85 % 0.00 in 0.0 W/m2 CLR
Air Products Campus Weather
Compliments of Weather Underground - 3.5 mb